sat.trackr.live / text

‹ back to catalog

STARLINK-6368

NORAD 57234 · 2023-094S

PAYLOAD ACTIVE UNKNOWN

§ Identity

Operator
Country
US
Launch date
2023-07-07
Launch site
AFWTR
Launch vehicle
Mass (kg)
RCS (m²)

Purposes: comms

External: N2YO · Heavens-Above · Gunter

§ Orbital elements

Epoch: 2026-09-20T13:40:58.841472Z

Period
94.27 min
Inclination
43.0040°
Eccentricity
0.0001774
Mean motion
15.27575337 rev/d
Perigee alt
481.8 km
Apogee alt
484.3 km
Semi-major
6,861.2 km
B*
7.1949e-6
RAAN
9.8106°
Arg perigee
272.6424°
Mean anomaly
87.4225°
Rev number
17,692

§ Raw data

STARLINK-63681 57234U 23094S   26263.57012548 -.00000064  00000+0  71949-5 0  99952 57234  43.0040   9.8106 0001774 272.6424  87.4225 15.27575337176922

JSON: /api/v1/satellites/57234 · /tle

For live sub-satellite position, see the globe view (requires WebGL).

§ Visibility from observer

Set your observer location to see the next 7 days of passes ≥ 10°. The values pass through the URL so the page stays shareable.

No JS? Fill the form by hand. The geolocation button needs JavaScript.